DateTimeUTC,F1_A11,F1_S11,BsB_S11,BsG_S11,BsR_S11,BbsB_S11,BbsG_S11,BbsR_S11,BaB_A11,BaG_A11,BaR_A11,Tu_S11,T_S11,Uu_S11,U_S11,P_S11,T1_A11
2021-04-04T07:00:00Z,00000200,21000000,,,,,,,0000.19,0000.39,-000.14,14.0,21.6,,00.0,0658.6,30.7
2021-04-04T07:01:00Z,00000200,21000000,,,,,,,-000.04,-000.19,0000.13,14.0,21.7,,00.0,0658.6,30.7
2021-04-04T07:02:00Z,00000200,21000000,,,,,,,-000.21,0000.06,0000.06,14.0,21.7,,00.0,0658.6,30.7
2021-04-04T07:03:00Z,00000200,61000000,,,,,,,0000.78,0000.92,0000.66,14.0,21.7,,00.0,0658.6,30.7
2021-04-04T07:04:00Z,00000200,41000000,0003.99,0002.36,0001.47,0000.72,0000.45,0000.32,0001.64,0001.19,0000.96,14.3,21.4,,00.0,0659.6,30.7
2021-04-04T07:05:00Z,00000200,01000000,0003.96,0002.10,0001.62,0000.45,0000.58,0000.33,0001.34,0001.52,0001.13,14.3,21.4,,00.0,0659.8,30.7
2021-04-04T07:06:00Z,00000200,01000000,0003.55,0002.55,0001.44,0000.90,0000.53,0000.28,0001.32,0001.46,0001.12,14.4,21.4,,00.0,0659.8,30.7
2021-04-04T07:07:00Z,00000200,01000000,0002.79,0002.06,0001.25,0000.89,0000.39,0000.08,0001.75,0000.96,0001.08,14.3,21.4,,00.0,0659.8,30.7
2021-04-04T07:08:00Z,00000200,01010000,0003.78,0002.14,0001.38,0000.66,0000.31,0000.18,0001.64,0001.73,0001.02,14.4,21.3,,00.0,0659.8,30.7
2021-04-04T07:09:00Z,00000200,01000000,0003.48,0002.23,0001.37,0000.43,0000.37,0000.35,0001.21,0001.18,0000.88,14.4,21.3,,00.0,0659.9,30.7
2021-04-04T07:10:00Z,00000200,01000000,0003.79,0002.58,0001.70,0000.75,0000.56,0000.17,0001.33,0001.32,0000.98,14.4,21.3,,00.0,0659.9,30.7
2021-04-04T07:11:00Z,00000200,01000000,0003.82,0002.25,0001.66,-000.16,0000.48,0000.37,0001.57,0001.53,0001.30,14.4,21.3,,00.0,0660.0,30.7
2021-04-04T07:12:00Z,00000200,01000000,0003.36,0002.54,0001.47,0000.48,0000.35,0000.08,0001.45,0001.18,0000.89,14.4,21.3,,00.0,0660.1,30.7
2021-04-04T07:13:00Z,00000200,01000000,0003.18,0002.49,0001.63,0000.78,0000.32,0000.18,0001.52,0001.39,0001.22,14.4,21.3,,00.0,0660.1,30.7
2021-04-04T07:14:00Z,00000200,01000000,0003.50,0002.22,0001.49,0000.28,0000.54,0000.13,0001.55,0001.42,0000.79,14.4,21.3,,00.0,0660.2,30.7
2021-04-04T07:15:00Z,00000200,01000000,0003.45,0002.64,0001.31,0000.53,0000.33,0000.16,0001.11,0000.95,0000.98,14.4,21.3,,00.0,0660.2,30.7
2021-04-04T07:16:00Z,00000200,01000000,0003.25,0002.22,0001.56,-000.29,0000.27,0000.20,0001.56,0001.66,0001.15,14.4,21.4,,00.0,0660.2,30.7
2021-04-04T07:17:00Z,00000200,01000000,0003.43,0002.28,0001.68,-000.09,0000.45,0000.33,0001.42,0001.42,0001.03,14.4,21.4,,00.0,0660.3,30.7
2021-04-04T07:18:00Z,00000200,01000000,0003.55,0002.64,0001.57,0000.79,0000.62,0000.43,0001.78,0001.22,0001.09,14.4,21.4,,00.0,0660.2,30.7
2021-04-04T07:19:00Z,00000200,01000000,0003.41,0002.66,0001.33,0000.18,0000.56,0000.47,0001.46,0001.43,0001.29,14.4,21.4,,00.0,0660.2,30.7
2021-04-04T07:20:00Z,00000200,01000000,0003.75,0002.38,0001.37,0000.14,0000.58,0000.16,0001.41,0001.42,0000.86,14.4,21.4,,00.0,0660.2,30.7
2021-04-04T07:21:00Z,00000200,01000000,0004.00,0002.26,0001.55,0000.25,0000.46,-000.04,0001.57,0001.62,0001.13,14.5,21.4,,00.0,0660.2,30.7
2021-04-04T07:22:00Z,00000200,01000000,0003.55,0002.38,0001.43,0000.43,0000.27,0000.16,0001.60,0001.09,0000.95,14.5,21.4,,00.0,0660.2,30.7
2021-04-04T07:23:00Z,00000200,01000000,0003.36,0002.54,0001.67,0000.44,0000.54,0000.20,0001.36,0001.44,0001.15,14.5,21.4,,00.0,0660.3,30.7
2021-04-04T07:24:00Z,00000200,01000000,0003.69,0002.24,0001.74,0001.03,0000.31,0000.24,0001.59,0001.67,0001.01,14.5,21.4,,00.0,0660.3,30.7
2021-04-04T07:25:00Z,00000200,01000000,0003.90,0002.53,0001.34,0000.43,0000.48,0000.20,0001.38,0000.88,0000.88,14.5,21.4,,00.0,0660.3,30.7
2021-04-04T07:26:00Z,00000200,01000000,0003.68,0002.33,0001.54,0000.63,0000.34,0000.11,0001.75,0001.61,0001.33,14.5,21.4,,00.0,0660.4,30.7
2021-04-04T07:27:00Z,00000200,01000000,0003.60,0002.38,0001.52,0000.56,0000.30,0000.29,0001.53,0001.26,0001.23,14.5,21.4,,00.0,0660.4,30.7
2021-04-04T07:28:00Z,00000200,01000000,0003.35,0002.36,0001.53,0000.45,0000.49,0000.51,0001.04,0001.18,0000.91,14.5,21.4,,00.0,0660.4,30.7
2021-04-04T07:29:00Z,00000200,01000000,0003.15,0002.35,0001.56,0000.38,0000.66,0000.09,0001.68,0001.66,0001.17,14.6,21.4,,00.0,0660.4,30.7
2021-04-04T07:30:00Z,00000200,01000000,0003.00,0002.10,0001.39,0000.14,0000.48,0000.56,0001.80,0001.53,0001.14,14.6,21.4,,00.0,0660.4,30.7
2021-04-04T07:31:00Z,00000200,01000000,0003.37,0002.46,0001.54,0000.32,0000.39,0000.47,0001.27,0001.20,0000.90,14.6,21.5,,00.0,0660.3,30.7
2021-04-04T07:32:00Z,00000200,01000000,0003.58,0002.29,0001.40,0000.54,0000.27,0000.47,0001.78,0001.75,0001.28,14.6,21.5,,00.0,0660.3,30.7
2021-04-04T07:33:00Z,00000200,01000000,0003.54,0001.69,0001.39,0000.43,0000.14,0000.25,0001.88,0001.59,0001.24,14.6,21.5,,00.0,0660.4,30.7
2021-04-04T07:34:00Z,00000200,01000000,0003.40,0002.45,0001.46,0000.24,0000.36,0000.46,0001.42,0001.22,0001.06,14.6,21.5,,00.0,0660.4,30.7
2021-04-04T07:35:00Z,00000200,01000000,0003.44,0002.11,0001.31,0000.79,0000.44,0000.21,0001.47,0001.44,0001.10,14.6,21.5,,00.0,0660.4,30.7
2021-04-04T07:36:00Z,00000200,01000000,0003.70,0002.67,0001.63,0000.79,0000.33,0000.31,0001.27,0001.24,0000.78,14.7,21.5,,00.0,0660.4,30.7
2021-04-04T07:37:00Z,00000200,01000000,0003.75,0002.38,0001.65,0000.51,0000.65,0000.37,0001.83,0001.64,0000.92,14.7,21.5,,00.0,0660.4,30.7
2021-04-04T07:38:00Z,00000200,01000000,0003.88,0002.60,0001.37,0000.72,0000.34,0000.32,0001.36,0000.76,0001.25,14.7,21.5,,00.0,0660.4,30.7
2021-04-04T07:39:00Z,00000200,01000000,0003.78,0002.70,0001.51,0000.39,0000.31,0000.29,0001.43,0001.77,0000.97,14.7,21.5,,00.0,0660.3,30.7
2021-04-04T07:40:00Z,00000200,01000000,0003.39,0002.47,0001.65,0000.45,0000.50,0000.62,0001.24,0001.19,0001.08,14.6,21.5,,00.0,0660.3,30.7
2021-04-04T07:41:00Z,00000200,01000000,0003.25,0002.08,0001.48,0000.42,0000.32,0000.20,0001.72,0001.09,0000.96,14.6,21.5,,00.0,0660.3,30.7
2021-04-04T07:42:00Z,00000200,01000000,0003.82,0002.00,0001.63,0000.66,0000.32,0000.30,0001.70,0001.68,0001.20,14.6,21.4,,00.0,0660.4,30.7
2021-04-04T07:43:00Z,00000200,01000000,0003.41,0002.37,0001.56,0000.51,0000.43,0000.34,0001.51,0001.16,0000.71,14.6,21.4,,00.0,0660.4,30.7
2021-04-04T07:44:00Z,00000200,01000000,0003.87,0002.44,0001.23,0000.69,0000.39,0000.14,0001.34,0001.73,0001.51,14.6,21.4,,00.0,0660.4,30.7
2021-04-04T07:45:00Z,00000200,01000000,0003.46,0002.21,0001.40,0000.18,0000.41,0000.26,0001.83,0001.77,0001.31,14.6,21.4,,00.0,0660.5,30.7
2021-04-04T07:46:00Z,00000200,01000000,0003.79,0002.42,0001.90,0000.33,0000.29,0000.37,0001.26,0001.26,0000.82,14.6,21.4,,00.0,0660.5,30.7
2021-04-04T07:47:00Z,00000200,01000000,0003.44,0002.46,0001.22,0000.10,0000.38,0000.09,0001.75,0001.13,0001.10,14.6,21.5,,00.0,0660.6,30.7
2021-04-04T07:48:00Z,00000200,01000000,0003.34,0002.62,0001.46,0001.23,0000.47,0000.23,0001.32,0001.32,0000.93,14.7,21.5,,00.0,0660.6,30.7
2021-04-04T07:49:00Z,00000200,01000000,0002.98,0002.04,0001.77,0000.47,0000.52,0000.27,0001.62,0001.32,0001.00,14.7,21.5,,00.0,0660.7,30.7
2021-04-04T07:50:00Z,00000200,01000000,0003.54,0002.49,0001.64,0000.22,0000.55,0000.40,0001.42,0001.91,0001.46,14.7,21.5,,00.0,0660.7,30.7
2021-04-04T07:51:00Z,00000200,01000000,0003.23,0002.66,0001.50,0000.33,0000.63,0000.46,0001.83,0001.34,0001.05,14.7,21.5,,00.0,0660.7,30.7
2021-04-04T07:52:00Z,00000200,01000000,0003.56,0002.74,0001.46,0000.32,0000.35,0000.39,0001.19,0001.26,0001.08,14.7,21.5,,00.0,0660.7,30.7
2021-04-04T07:53:00Z,00000200,01000000,0003.58,0002.45,0001.71,0000.74,0000.45,0000.56,0001.87,0001.80,0000.81,14.7,21.5,,00.0,0660.8,30.8
2021-04-04T07:54:00Z,00000200,01000000,0003.53,0002.25,0001.47,0000.38,0000.50,0000.38,0001.12,0000.89,0000.98,14.6,21.5,,00.0,0660.7,30.8
2021-04-04T07:55:00Z,00000200,01000000,0003.78,0002.38,0001.57,0000.23,0000.48,0000.25,0001.53,0001.58,0000.93,14.6,21.5,,00.0,0660.7,30.8
2021-04-04T07:56:00Z,00000200,01000000,0003.27,0002.50,0001.79,0000.77,0000.25,0000.30,0001.70,0001.15,0001.18,14.6,21.5,,00.0,0660.8,30.8
2021-04-04T07:57:00Z,00000200,41000000,,,,,,,0001.42,0001.22,0000.85,14.6,21.5,,00.0,0660.8,30.8
2021-04-04T07:58:00Z,00000200,61000000,,,,,,,-000.48,-000.07,-000.24,14.2,21.7,,00.0,0659.9,30.8
2021-04-04T07:59:00Z,00000200,21000000,,,,,,,-000.48,-000.74,-000.17,14.2,21.8,,00.0,0659.9,30.8
